Dewpoint
68 69 69 67 67 67 66 67 68 67 69 68 68 68 68 69 71 71 70 71 71 71 73 72 73 73 73 75 73 74 74 73 74 73 73 73 72 72 72 72 71 71
69 70 71 69 69 70 68 68 69 69 69 68 69 69 69 70 70 71 71 70 72 71 72 72 73 73 74 75 74 74 73 73 73 75 74 73 72 72 72 72 70 70
69 69 70 69 68 69 68 68 69 70 69 68 70 70 69 70 70 71 70 70 71 71 72 72 73 73 74 75 74 74 74 73 73 73 74 73 73 73 72 72 71 70
69 68 68 68 68 69 68 69 69 69 69 69 69 70 69 69 69 69 70 73 71 72 71 72 73 72 73 74 74 74 73 73 73 72 72 73 73 73 72 71 72 71
68 68 68 67 67 68 68 67 67 67 67 68 68 69 71 70 69 68 69 70 71 71 72 72 72 72 72 73 74 73 73 73 73 72 72 72 73 73 72 73 73 71
68 68 68 67 67 67 67 66 67 66 66 66 67 69 68 68 68 68 68 68 70 70 71 71 72 72 72 72 73 73 73 73 73 73 72 72 73 74 73 73 72 71
68 68 67 66 66 66 66 66 66 67 66 65 67 67 67 67 67 67 68 68 68 70 70 71 71 72 72 72 73 72 72 73 73 73 72 72 73 72 72 72 72 71
68 68 67 67 65 65 65 65 65 66 65 65 65 66 66 66 66 66 68 68 68 68 69 70 71 71 71 70 73 72 72 71 72 72 72 72 72 72 72 72 71 71
68 68 67 66 66 65 64 64 64 64 65 64 64 64 66 66 66 66 67 67 68 68 68 69 70 70 70 70 71 72 72 71 71 72 72 72 72 72 71 71 71 71
68 67 67 66 66 65 64 63 62 63 64 63 63 64 65 66 66 66 66 67 66 68 68 67 69 69 69 69 70 72 72 72 71 70 71 72 72 72 72 72 71 71
68 67 67 66 66 65 64 63 62 61 63 63 62 63 64 65 66 66 66 66 66 66 66 66 67 68 68 68 69 70 71 71 71 70 70 71 71 71 74 72 72 71
67 67 67 66 66 65 64 62 61 60 61 63 63 62 62 64 65 65 66 65 65 65 65 66 66 67 67 67 67 68 70 70 70 70 70 71 72 72 72 73 72 72
66 67 66 66 66 65 64 62 60 60 60 61 63 62 61 63 64 65 66 65 65 65 65 65 66 66 67 67 66 66 68 69 69 69 69 70 72 73 73 73 73 72
66 66 66 66 65 65 65 63 61 59 60 60 62 62 61 61 63 64 64 65 65 65 65 65 65 65 66 66 66 65 66 68 69 69 68 69 70 71 72 72 72 72
66 66 66 65 66 65 64 63 61 60 61 61 61 61 61 62 63 63 63 63 64 65 65 65 65 65 65 66 66 65 65 67 68 68 68 69 69 69 71 72 72 72
68 68 68 68 66 64 64 63 62 61 60 61 62 61 61 62 64 64 63 63 63 64 64 64 66 66 70 71 70 66 65 66 68 68 69 69 69 69 70 71 71 72
69 69 69 69 69 67 65 64 62 62 62 62 62 62 61 63 64 64 64 64 63 64 63 63 63 66 72 68 68 71 68 66 67 69 69 69 69 69 69 70 72 72
69 69 69 70 71 70 68 66 64 63 63 63 63 63 64 63 64 64 64 64 64 64 64 64 64 70 67 67 68 68 72 68 67 67 70 69 69 70 70 70 72 73
71 71 70 70 72 73 72 69 67 65 63 64 63 64 64 64 65 64 64 64 64 64 64 65 66 69 65 65 66 66 68 72 67 67 68 69 70 71 71 71 72 73
70 71 72 72 72 72 73 72 70 67 65 64 65 65 64 65 65 64 65 65 65 65 65 66 67 70 65 65 64 65 65 70 69 69 69 70 71 72 72 72 72 72
70 70 70 71 71 72 72 72 72 71 68 66 66 66 65 65 65 64 65 66 67 66 66 67 68 67 64 64 63 63 64 69 70 71 71 71 71 72 72 72 72 73
70 71 71 71 71 71 72 72 72 72 71 69 67 67 67 66 66 65 65 66 68 68 67 67 68 65 64 63 63 63 65 68 69 71 71 71 71 72 72 72 73 73
70 71 71 71 71 71 71 72 72 72 72 71 69 67 67 68 67 67 66 66 68 69 68 68 68 66 62 62 62 62 66 68 69 70 71 71 70 72 72 72 73 73
70 70 71 71 71 71 72 72 73 73 73 73 71 69 68 68 68 68 68 68 68 69 68 68 68 68 62 61 61 61 68 68 69 70 70 70 70 71 72 73 73 77
71 71 71 71 71 72 72 72 72 72 71 70 69 68 69 69 70 69 69 69 69 69 73 70 68 69 61 61 60 60 66 68 69 69 69 70 70 70 72 72 73 77
71 72 72 72 71 71 71 71 71 70 70 70 70 70 70 70 70 70 69 69 70 70 71 71 69 69 68 60 60 60 63 69 69 69 69 69 70 70 71 70 71 73